Satellite: NO-44
Catalog number: 26931
Epoch time:      09364.80784227
Element set:    0351
Inclination:      067.0530 deg
RA of node:       277.7861 deg
Eccentricity:    0.0006950
Arg of perigee:   265.2494 deg
Mean anomaly:     094.7809 deg
Mean motion:   14.29576259 rev/day
Decay rate:      -3.46e-06 rev/day^2
Epoch rev:           43068
Checksum:              341

Satellite: SO-50
Catalog number: 27607
Epoch time:      09364.87362599
Element set:      67
Inclination:      064.5557 deg
RA of node:       147.7253 deg
Eccentricity:    0.0044002
Arg of perigee:   150.8673 deg
Mean anomaly:     209.4889 deg
Mean motion:   14.71486295 rev/day
Decay rate:        4.6e-07 rev/day^2
Epoch rev:           37761
Checksum:              344

Satellite: CO-55
Catalog number: 27844
Epoch time:      09364.63166874
Element set:    0747
Inclination:      098.7107 deg
RA of node:       011.0153 deg
Eccentricity:    0.0009484
Arg of perigee:   301.4527 deg
Mean anomaly:     058.5718 deg
Mean motion:   14.20675736 rev/day
Decay rate:        5.8e-07 rev/day^2
Epoch rev:           33715
Checksum:              324

Satellite: CO-57
Catalog number: 27848
Epoch time:      09364.70733246
Element set:     696
Inclination:      098.7177 deg
RA of node:       010.1636 deg
Eccentricity:    0.0009041
Arg of perigee:   305.0240 deg
Mean anomaly:     055.0087 deg
Mean motion:   14.20472537 rev/day
Decay rate:        3.7e-07 rev/day^2
Epoch rev:           33712
Checksum:              297

Satellite: AO-51
Catalog number: 28375
Epoch time:      09365.55969138
Element set:     568
Inclination:      098.0532 deg
RA of node:       003.6820 deg
Eccentricity:    0.0083014
Arg of perigee:   246.4054 deg
Mean anomaly:     112.8404 deg
Mean motion:   14.40664041 rev/day
Decay rate:        7.0e-08 rev/day^2
Epoch rev:           28937
Checksum:              304

Satellite: CO-56
Catalog number: 28941
Epoch time:      09297.68475575
Element set:     556
Inclination:      098.0955 deg
RA of node:       138.9518 deg
Eccentricity:    0.0011688
Arg of perigee:   319.8691 deg
Mean anomaly:     040.7485 deg
Mean motion:   16.46998778 rev/day
Decay rate:  1.4491492e-01 rev/day^2
Epoch rev:           20790
Checksum:              407

Satellite: GENESAT1
Catalog number: 29655
Epoch time:      09364.45987078
Element set:    0910
Inclination:      040.0228 deg
RA of node:       029.0181 deg
Eccentricity:    0.0004812
Arg of perigee:   192.4725 deg
Mean anomaly:     167.5974 deg
Mean motion:   15.71605301 rev/day
Decay rate:     2.0583e-04 rev/day^2
Epoch rev:           17329
Checksum:              305

Satellite: CP3
Catalog number: 31129
Epoch time:      09365.71873012
Element set:     437
Inclination:      097.9643 deg
RA of node:       049.0597 deg
Eccentricity:    0.0103121
Arg of perigee:   033.7062 deg
Mean anomaly:     327.0630 deg
Mean motion:   14.52195682 rev/day
Decay rate:       1.04e-06 rev/day^2
Epoch rev:           14355
Checksum:              282

Satellite: CO-65
Catalog number: 32785
Epoch time:      09365.87999280
Element set:     565
Inclination:      097.9198 deg
RA of node:       067.9450 deg
Eccentricity:    0.0015925
Arg of perigee:   107.1437 deg
Mean anomaly:     253.1556 deg
Mean motion:   14.81563629 rev/day
Decay rate:       3.42e-06 rev/day^2
Epoch rev:            9071
Checksum:              354

Satellite: KKS-1
Catalog number: 33493
Epoch time:      09365.75546399
Element set:      74
Inclination:      098.0699 deg
RA of node:       119.0316 deg
Eccentricity:    0.0019364
Arg of perigee:   325.9050 deg
Mean anomaly:     034.0930 deg
Mean motion:   14.80810979 rev/day
Decay rate:       3.35e-06 rev/day^2
Epoch rev:            5070
Checksum:              313

Satellite: SOHLA-1
Catalog number: 33496
Epoch time:      09365.85832477
Element set:     988
Inclination:      098.0485 deg
RA of node:       112.2396 deg
Eccentricity:    0.0006953
Arg of perigee:   024.1817 deg
Mean anomaly:     335.9716 deg
Mean motion:   14.69461324 rev/day
Decay rate:       -7.9e-07 rev/day^2
Epoch rev:            5030
Checksum:              332

/EX
SB KEPS @ AMSAT  $ORB09365.W
Orbital Elements  09365.WEATHER

HR AMSAT ORBITAL ELEMENTS FOR WEATHER SATELLITES
FROM WA5QGD FORT WORTH,TX December 31, 2009
Send Subscribe/unsubscribe to KEPS at http://www.amsat.org/mailman/listinfo/kep
BID: ORB09365.W
TO ALL RADIO AMATEURS BT

Satellite: NOAA-10
Catalog number: 16969
Epoch time:      09365.55166629
Element set:     899
Inclination:      098.6743 deg
RA of node:       030.9472 deg
Eccentricity:    0.0012318
Arg of perigee:   344.8647 deg
Mean anomaly:     015.2162 deg
Mean motion:   14.27402228 rev/day
Decay rate:      -1.17e-06 rev/day^2
Epoch rev:           21166
Checksum:              319

Satellite: NOAA-11
Catalog number: 19531
Epoch time:      09365.22145436
Element set:     911
Inclination:      098.7772 deg
RA of node:       092.0761 deg
Eccentricity:    0.0010826
Arg of perigee:   268.1188 deg
Mean anomaly:     091.8740 deg
Mean motion:   14.14912062 rev/day
Decay rate:       2.05e-06 rev/day^2
Epoch rev:            9738
Checksum:              301

